| time (UTC) | temp F | wind direction | speed MPH | gust MPH | rain 1hr in | rain 24hr in | rain mn in | humidity % | barometer mb |
| 20260504221058 | 75 | 168 | 17.0 | 17.0 | 0.00 | 0.00 | 0.00 | 40 | 981.6 |
| 20260504220558 | 75 | 180 | 16.0 | 16.0 | 0.00 | 0.00 | 0.00 | 42 | 981.8 |
| 20260504220058 | 75 | 176 | 13.0 | 13.0 | 0.00 | 0.00 | 0.00 | 42 | 981.7 |
| 20260504215558 | 75 | 181 | 12.0 | 12.0 | 0.00 | 0.00 | 0.00 | 41 | 981.8 |
| 20260504215058 | 75 | 203 | 21.0 | 21.0 | 0.00 | 0.00 | 0.00 | 40 | 981.8 |
| 20260504214558 | 75 | 192 | 15.0 | 15.0 | 0.00 | 0.00 | 0.00 | 41 | 981.8 |
| 20260504214058 | 75 | 195 | 15.0 | 15.0 | 0.00 | 0.00 | 0.00 | 41 | 981.9 |
| 20260504213558 | 75 | 184 | 15.0 | 15.0 | 0.00 | 0.00 | 0.00 | 40 | 981.7 |
| 20260504213058 | 75 | 196 | 23.0 | 23.0 | 0.00 | 0.00 | 0.00 | 41 | 981.7 |
| 20260504212558 | 75 | 226 | 9.0 | 9.0 | 0.00 | 0.00 | 0.00 | 41 | 981.7 |
| 20260504212058 | 75 | 165 | 18.0 | 18.0 | 0.00 | 0.00 | 0.00 | 42 | 981.7 |
| 20260504211558 | 75 | 155 | 12.0 | 12.0 | 0.00 | 0.00 | 0.00 | 42 | 981.8 |
| 20260504211058 | 75 | 167 | 10.0 | 10.0 | 0.00 | 0.00 | 0.00 | 41 | 981.8 |
| 20260504210558 | 75 | 178 | 10.0 | 10.0 | 0.00 | 0.00 | 0.00 | 41 | 981.9 |
| 20260504210058 | 76 | 169 | 17.0 | 17.0 | 0.00 | 0.00 | 0.00 | 41 | 982.0 |
| 20260504205558 | 76 | 234 | 8.0 | 8.0 | 0.00 | 0.00 | 0.00 | 40 | 982.0 |
| 20260504205058 | 76 | 189 | 10.0 | 10.0 | 0.00 | 0.00 | 0.00 | 40 | 982.0 |
| 20260504204558 | 75 | 179 | 17.0 | 17.0 | 0.00 | 0.00 | 0.00 | 40 | 982.0 |
| 20260504204058 | 75 | 173 | 19.0 | 19.0 | 0.00 | 0.00 | 0.00 | 40 | 982.1 |
| 20260504203558 | 75 | 179 | 10.0 | 10.0 | 0.00 | 0.00 | 0.00 | 39 | 982.3 |
| 20260504203058 | 75 | 184 | 19.0 | 19.0 | 0.00 | 0.00 | 0.00 | 40 | 982.3 |
| 20260504202558 | 75 | 174 | 21.0 | 21.0 | 0.00 | 0.00 | 0.00 | 38 | 982.3 |
| 20260504202058 | 75 | 174 | 23.0 | 23.0 | 0.00 | 0.00 | 0.00 | 38 | 982.4 |
| 20260504201558 | 76 | 174 | 23.0 | 23.0 | 0.00 | 0.00 | 0.00 | 44 | 982.4 |
| 20260504201058 | 76 | 181 | 13.0 | 13.0 | 0.00 | 0.00 | 0.00 | 46 | 982.6 |
| 20260504200558 | 75 | 198 | 17.0 | 17.0 | 0.00 | 0.00 | 0.00 | 45 | 982.6 |
| 20260504200058 | 75 | 162 | 12.0 | 12.0 | 0.00 | 0.00 | 0.00 | 45 | 982.7 |
| 20260504195558 | 75 | 202 | 11.0 | 11.0 | 0.00 | 0.00 | 0.00 | 43 | 982.9 |
| 20260504195058 | 75 | 186 | 11.0 | 11.0 | 0.00 | 0.00 | 0.00 | 42 | 982.7 |
| 20260504194558 | 75 | 198 | 17.0 | 17.0 | 0.00 | 0.00 | 0.00 | 44 | 982.9 |
| 20260504194058 | 76 | 178 | 19.0 | 19.0 | 0.00 | 0.00 | 0.00 | 45 | 982.9 |
| 20260504193558 | 75 | 199 | 4.0 | 4.0 | 0.00 | 0.00 | 0.00 | 43 | 983.1 |
| 20260504193058 | 76 | 231 | 10.0 | 10.0 | 0.00 | 0.00 | 0.00 | 47 | 983.1 |
| 20260504192558 | 75 | 231 | 13.0 | 13.0 | 0.00 | 0.00 | 0.00 | 47 | 983.1 |
| 20260504192058 | 75 | 174 | 15.0 | 15.0 | 0.00 | 0.00 | 0.00 | 44 | 983.2 |
| 20260504191558 | 75 | 183 | 13.0 | 13.0 | 0.00 | 0.00 | 0.00 | 43 | 983.2 |
| 20260504191058 | 75 | 156 | 13.0 | 13.0 | 0.00 | 0.00 | 0.00 | 44 | 983.4 |
| 20260504190558 | 75 | 175 | 11.0 | 11.0 | 0.00 | 0.00 | 0.00 | 46 | 983.5 |
| 20260504190058 | 75 | 140 | 10.0 | 10.0 | 0.00 | 0.00 | 0.00 | 47 | 983.5 |
| 20260504185558 | 74 | 178 | 6.0 | 6.0 | 0.00 | 0.00 | 0.00 | 48 | 983.5 |
| 20260504185058 | 74 | 178 | 6.0 | 6.0 | 0.00 | 0.00 | 0.00 | 47 | 983.6 |
| 20260504184558 | 75 | 195 | 10.0 | 10.0 | 0.00 | 0.00 | 0.00 | 48 | 983.6 |
| 20260504184058 | 75 | 221 | 5.0 | 5.0 | 0.00 | 0.00 | 0.00 | 47 | 983.5 |
| 20260504183558 | 74 | 147 | 4.0 | 4.0 | 0.00 | 0.00 | 0.00 | 49 | 983.7 |
| 20260504183058 | 75 | 158 | 11.0 | 11.0 | 0.00 | 0.00 | 0.00 | 46 | 983.7 |
| 20260504182558 | 75 | 193 | 10.0 | 10.0 | 0.00 | 0.00 | 0.00 | 48 | 983.7 |
| 20260504182058 | 74 | 233 | 16.0 | 16.0 | 0.00 | 0.00 | 0.00 | 48 | 983.8 |
| 20260504181558 | 74 | 250 | 5.0 | 5.0 | 0.00 | 0.00 | 0.00 | 50 | 983.9 |
| 20260504181058 | 74 | 204 | 14.0 | 14.0 | 0.00 | 0.00 | 0.00 | 49 | 983.8 |
| 20260504180558 | 73 | 186 | 6.0 | 6.0 | 0.00 | 0.00 | 0.00 | 50 | 983.9 |
| 20260504180059 | 74 | 205 | 13.0 | 13.0 | 0.00 | 0.00 | 0.00 | 50 | 984.0 |
| 20260504175558 | 73 | 290 | 5.0 | 5.0 | 0.00 | 0.00 | 0.00 | 49 | 984.0 |
| 20260504175058 | 73 | 198 | 12.0 | 12.0 | 0.00 | 0.00 | 0.00 | 48 | 984.2 |
| 20260504174558 | 74 | 217 | 14.0 | 14.0 | 0.00 | 0.00 | 0.00 | 51 | 984.1 |
| 20260504174058 | 74 | 213 | 11.0 | 11.0 | 0.00 | 0.00 | 0.00 | 48 | 984.2 |
| 20260504173558 | 74 | 189 | 8.0 | 8.0 | 0.00 | 0.00 | 0.00 | 51 | 984.3 |
| 20260504173058 | 74 | 225 | 17.0 | 17.0 | 0.00 | 0.00 | 0.00 | 50 | 984.3 |
| 20260504172558 | 73 | 167 | 6.0 | 6.0 | 0.00 | 0.00 | 0.00 | 51 | 984.4 |
| 20260504172058 | 73 | 205 | 12.0 | 12.0 | 0.00 | 0.00 | 0.00 | 51 | 984.5 |
| 20260504171558 | 73 | 245 | 9.0 | 9.0 | 0.00 | 0.00 | 0.00 | 51 | 984.6 |
| 20260504171058 | 73 | 231 | 14.0 | 14.0 | 0.00 | 0.00 | 0.00 | 50 | 984.7 |
| 20260504170558 | 73 | 226 | 10.0 | 10.0 | 0.00 | 0.00 | 0.00 | 51 | 984.7 |
| 20260504151058 | 68 | 224 | 13.0 | 13.0 | 0.00 | 0.00 | 0.00 | 58 | 985.6 |
| 20260504150558 | 68 | 218 | 18.0 | 18.0 | 0.00 | 0.00 | 0.00 | 58 | 985.7 |
| 20260504140841 | 64 | 239 | 12.0 | 12.0 | 0.00 | 0.00 | 0.00 | 64 | 985.9 |
| 20260504140341 | 64 | 196 | 11.0 | 11.0 | 0.00 | 0.00 | 0.00 | 64 | 985.8 |
| 20260504130759 | 61 | 189 | 17.0 | 17.0 | 0.00 | 0.00 | 0.00 | 65 | 985.6 |
| 20260504130300 | 61 | 167 | 11.0 | 11.0 | 0.00 | 0.00 | 0.00 | 65 | 985.6 |
| 20260504120300 | 58 | 174 | 18.0 | 18.0 | 0.00 | 0.00 | 0.00 | 65 | 985.0 |
| 20260504110300 | 58 | 184 | 14.0 | 14.0 | 0.00 | 0.00 | 0.00 | 63 | 984.9 |
| 20260504100300 | 58 | 186 | 14.0 | 14.0 | 0.00 | 0.00 | 0.00 | 61 | 984.7 |
| 20260504081759 | 58 | 183 | 14.0 | 14.0 | 0.00 | 0.00 | 0.00 | 60 | 984.8 |
| 20260504081259 | 58 | 188 | 19.0 | 19.0 | 0.00 | 0.00 | 0.00 | 59 | 984.7 |
| 20260504080800 | 59 | 181 | 15.0 | 15.0 | 0.00 | 0.00 | 0.00 | 59 | 984.6 |
| 20260504080259 | 59 | 187 | 15.0 | 15.0 | 0.00 | 0.00 | 0.00 | 59 | 984.6 |
| 20260504070259 | 59 | 181 | 23.0 | 23.0 | 0.00 | 0.00 | 0.00 | 58 | 985.4 |
| 20260504050300 | 61 | 180 | 15.0 | 15.0 | 0.00 | 0.00 | 0.00 | 54 | 986.2 |
| 20260504045759 | 61 | 179 | 14.0 | 14.0 | 0.00 | 0.00 | 0.00 | 54 | 986.2 |
| 20260504045259 | 61 | 181 | 15.0 | 15.0 | 0.00 | 0.00 | 0.00 | 54 | 986.2 |
| 20260504044800 | 61 | 175 | 15.0 | 15.0 | 0.00 | 0.00 | 0.00 | 54 | 986.1 |
| 20260504044300 | 61 | 167 | 16.0 | 16.0 | 0.00 | 0.00 | 0.00 | 53 | 986.3 |
| 20260504043759 | 61 | 180 | 15.0 | 15.0 | 0.00 | 0.00 | 0.00 | 53 | 986.4 |
| 20260504043259 | 61 | 174 | 15.0 | 15.0 | 0.00 | 0.00 | 0.00 | 53 | 986.3 |
| 20260504042759 | 61 | 174 | 15.0 | 15.0 | 0.00 | 0.00 | 0.00 | 53 | 986.5 |
| 20260504042259 | 61 | 179 | 15.0 | 15.0 | 0.00 | 0.00 | 0.00 | 53 | 986.4 |
| 20260504041759 | 61 | 161 | 14.0 | 14.0 | 0.00 | 0.00 | 0.00 | 53 | 986.4 |
| 20260504041259 | 61 | 171 | 15.0 | 15.0 | 0.00 | 0.00 | 0.00 | 52 | 986.4 |
| 20260504040759 | 61 | 179 | 15.0 | 15.0 | 0.00 | 0.00 | 0.00 | 53 | 986.5 |
| 20260504040300 | 61 | 184 | 15.0 | 15.0 | 0.00 | 0.00 | 0.00 | 53 | 986.5 |
| 20260504035800 | 61 | 174 | 14.0 | 14.0 | 0.00 | 0.00 | 0.00 | 53 | 986.6 |
| 20260504035259 | 60 | 175 | 14.0 | 14.0 | 0.00 | 0.00 | 0.00 | 54 | 986.6 |
| 20260504034759 | 60 | 174 | 12.0 | 12.0 | 0.00 | 0.00 | 0.00 | 54 | 986.7 |
| 20260504034259 | 60 | 178 | 15.0 | 15.0 | 0.00 | 0.00 | 0.00 | 54 | 986.7 |
| 20260504033759 | 60 | 177 | 11.0 | 11.0 | 0.00 | 0.00 | 0.00 | 55 | 986.6 |
| 20260504033300 | 60 | 176 | 12.0 | 12.0 | 0.00 | 0.00 | 0.00 | 55 | 986.7 |
| 20260504032759 | 60 | 169 | 12.0 | 12.0 | 0.00 | 0.00 | 0.00 | 55 | 986.6 |
| 20260504032300 | 60 | 175 | 12.0 | 12.0 | 0.00 | 0.00 | 0.00 | 54 | 986.8 |
| 20260504031759 | 60 | 172 | 13.0 | 13.0 | 0.00 | 0.00 | 0.00 | 54 | 986.8 |
| 20260504031259 | 60 | 174 | 11.0 | 11.0 | 0.00 | 0.00 | 0.00 | 54 | 987.0 |
| 20260504030800 | 61 | 165 | 10.0 | 10.0 | 0.00 | 0.00 | 0.00 | 53 | 986.8 |
| 20260504030259 | 61 | 168 | 10.0 | 10.0 | 0.00 | 0.00 | 0.00 | 51 | 986.9 |
| 20260504025759 | 62 | 174 | 11.0 | 11.0 | 0.00 | 0.00 | 0.00 | 51 | 986.9 |
| 20260504025300 | 62 | 175 | 10.0 | 10.0 | 0.00 | 0.00 | 0.00 | 51 | 987.0 |
| 20260504024759 | 61 | 176 | 9.0 | 9.0 | 0.00 | 0.00 | 0.00 | 52 | 986.9 |
| 20260504024300 | 61 | 176 | 7.0 | 7.0 | 0.00 | 0.00 | 0.00 | 52 | 986.8 |
| 20260504023759 | 62 | 168 | 10.0 | 10.0 | 0.00 | 0.00 | 0.00 | 51 | 986.8 |
| 20260504023259 | 61 | 170 | 9.0 | 9.0 | 0.00 | 0.00 | 0.00 | 52 | 986.9 |
| 20260504022800 | 62 | 172 | 9.0 | 9.0 | 0.00 | 0.00 | 0.00 | 52 | 987.0 |
| 20260504022300 | 62 | 181 | 9.0 | 9.0 | 0.00 | 0.00 | 0.00 | 52 | 986.9 |
| 20260504021759 | 62 | 174 | 8.0 | 8.0 | 0.00 | 0.00 | 0.00 | 51 | 986.9 |
| 20260504021300 | 62 | 178 | 12.0 | 12.0 | 0.00 | 0.00 | 0.00 | 50 | 986.8 |
| 20260504020759 | 62 | 179 | 11.0 | 11.0 | 0.00 | 0.00 | 0.00 | 49 | 986.8 |
| 20260504020259 | 62 | 184 | 11.0 | 11.0 | 0.00 | 0.00 | 0.00 | 49 | 986.8 |
| 20260504015759 | 62 | 183 | 9.0 | 9.0 | 0.00 | 0.00 | 0.00 | 50 | 986.7 |
| 20260504015259 | 62 | 182 | 9.0 | 9.0 | 0.00 | 0.00 | 0.00 | 50 | 986.7 |
| 20260504014759 | 62 | 180 | 9.0 | 9.0 | 0.00 | 0.00 | 0.00 | 50 | 986.7 |
| 20260504014300 | 63 | 176 | 9.0 | 9.0 | 0.00 | 0.00 | 0.00 | 50 | 986.5 |
| 20260504013800 | 63 | 179 | 10.0 | 10.0 | 0.00 | 0.00 | 0.00 | 50 | 986.5 |
| 20260504013259 | 63 | 180 | 11.0 | 11.0 | 0.00 | 0.00 | 0.00 | 50 | 986.4 |
| 20260504012759 | 63 | 179 | 11.0 | 11.0 | 0.00 | 0.00 | 0.00 | 50 | 986.4 |
| 20260504012259 | 63 | 181 | 9.0 | 9.0 | 0.00 | 0.00 | 0.00 | 49 | 986.4 |
| 20260504011759 | 63 | 181 | 10.0 | 10.0 | 0.00 | 0.00 | 0.00 | 49 | 986.5 |
| 20260504011259 | 63 | 176 | 9.0 | 9.0 | 0.00 | 0.00 | 0.00 | 50 | 986.4 |
| 20260504010800 | 63 | 175 | 9.0 | 9.0 | 0.00 | 0.00 | 0.00 | 49 | 986.4 |
| 20260504010259 | 63 | 179 | 7.0 | 7.0 | 0.00 | 0.00 | 0.00 | 49 | 986.4 |
| 20260504005759 | 63 | 181 | 8.0 | 8.0 | 0.00 | 0.00 | 0.00 | 49 | 986.4 |
| 20260504005300 | 64 | 183 | 10.0 | 10.0 | 0.00 | 0.00 | 0.00 | 48 | 986.3 |
| 20260504004759 | 64 | 183 | 9.0 | 9.0 | 0.00 | 0.00 | 0.00 | 48 | 986.4 |
| 20260504004259 | 64 | 178 | 8.0 | 8.0 | 0.00 | 0.00 | 0.00 | 48 | 986.3 |
| 20260504003800 | 64 | 179 | 7.0 | 7.0 | 0.00 | 0.00 | 0.00 | 48 | 986.3 |
| 20260504003300 | 65 | 175 | 7.0 | 7.0 | 0.00 | 0.00 | 0.00 | 47 | 986.2 |
| 20260504002759 | 65 | 177 | 7.0 | 7.0 | 0.00 | 0.00 | 0.00 | 46 | 986.3 |
| 20260504002300 | 65 | 172 | 8.0 | 8.0 | 0.00 | 0.00 | 0.00 | 45 | 986.4 |
| 20260504001759 | 66 | 186 | 6.0 | 6.0 | 0.00 | 0.00 | 0.00 | 44 | 986.4 |
| 20260504001300 | 66 | 196 | 6.0 | 6.0 | 0.00 | 0.00 | 0.00 | 44 | 986.4 |
| 20260504000800 | 66 | 195 | 6.0 | 6.0 | 0.00 | 0.00 | 0.00 | 44 | 986.5 |
| 20260504000300 | 66 | 194 | 5.0 | 5.0 | 0.00 | 0.00 | 0.00 | 43 | 986.5 |
| 20260503235759 | 66 | 210 | 5.0 | 5.0 | 0.00 | 0.00 | 0.00 | 43 | 986.7 |
| 20260503235259 | 67 | 181 | 7.0 | 7.0 | 0.00 | 0.00 | 0.00 | 42 | 986.8 |
| 20260503234759 | 67 | 199 | 5.0 | 5.0 | 0.00 | 0.00 | 0.00 | 41 | 986.8 |
| 20260503234259 | 67 | 219 | 6.0 | 6.0 | 0.00 | 0.00 | 0.00 | 42 | 986.8 |
| 20260503233800 | 67 | 218 | 6.0 | 6.0 | 0.00 | 0.00 | 0.00 | 42 | 986.9 |
| 20260503233259 | 67 | 214 | 7.0 | 7.0 | 0.00 | 0.00 | 0.00 | 41 | 986.8 |
| 20260503232759 | 67 | 191 | 4.0 | 4.0 | 0.00 | 0.00 | 0.00 | 43 | 986.9 |
| 20260503232300 | 68 | 191 | 9.0 | 9.0 | 0.00 | 0.00 | 0.00 | 41 | 987.0 |
| 20260503231759 | 68 | 195 | 8.0 | 8.0 | 0.00 | 0.00 | 0.00 | 42 | 987.1 |
| 20260503231259 | 68 | 200 | 9.0 | 9.0 | 0.00 | 0.00 | 0.00 | 40 | 987.0 |
| 20260503230759 | 67 | 226 | 5.0 | 5.0 | 0.00 | 0.00 | 0.00 | 43 | 987.1 |
| 20260503230259 | 67 | 197 | 4.0 | 4.0 | 0.00 | 0.00 | 0.00 | 40 | 987.2 |
| 20260503225800 | 67 | 188 | 2.0 | 2.0 | 0.00 | 0.00 | 0.00 | 42 | 987.1 |
| 20260503225259 | 67 | 197 | 7.0 | 7.0 | 0.00 | 0.00 | 0.00 | 41 | 987.2 |
| 20260503224800 | 67 | 217 | 8.0 | 8.0 | 0.00 | 0.00 | 0.00 | 41 | 987.2 |
| 20260503224259 | 68 | 182 | 5.0 | 5.0 | 0.00 | 0.00 | 0.00 | 42 | 987.3 |
| 20260503223759 | 68 | 225 | 3.0 | 3.0 | 0.00 | 0.00 | 0.00 | 42 | 987.3 |
| 20260503223259 | 68 | 239 | 5.0 | 5.0 | 0.00 | 0.00 | 0.00 | 41 | 987.3 |
| 20260503222759 | 68 | 230 | 6.0 | 6.0 | 0.00 | 0.00 | 0.00 | 43 | 987.2 |
| 20260503222259 | 67 | 178 | 8.0 | 8.0 | 0.00 | 0.00 | 0.00 | 41 | 987.3 |
| 20260503221759 | 67 | 278 | 3.0 | 3.0 | 0.00 | 0.00 | 0.00 | 41 | 987.3 |
| 20260503221259 | 67 | 225 | 7.0 | 7.0 | 0.00 | 0.00 | 0.00 | 40 | 987.4 |